| time (UTC) | temp F | wind direction | speed knots | gust knots | rain 1hr in | rain 24hr in | rain mn in | humidity % | barometer mb |
| 20260505011549 | 43 | 236 | 0.0 | 4.3 | 0.00 | 0.50 | 0.48 | 88 | 1006.8 |
| 20260505010043 | 43 | 224 | 1.7 | 4.3 | 0.00 | 0.50 | 0.48 | 88 | 1006.4 |
| 20260505004544 | 44 | 229 | 0.9 | 4.3 | 0.00 | 0.51 | 0.48 | 85 | 1006.3 |
| 20260505003038 | 45 | 248 | 1.7 | 5.2 | 0.00 | 0.51 | 0.48 | 83 | 1006.1 |
| 20260505001539 | 45 | 223 | 2.6 | 5.2 | 0.00 | 0.51 | 0.48 | 82 | 1005.9 |
| 20260505000035 | 46 | 263 | 4.3 | 9.6 | 0.00 | 0.51 | 0.48 | 81 | 1005.8 |
| 20260504234533 | 46 | 227 | 5.2 | 12.2 | 0.00 | 0.55 | 0.48 | 80 | 1005.6 |
| 20260504233054 | 47 | 157 | 4.3 | 13.0 | 0.00 | 0.55 | 0.48 | 79 | 1005.4 |
| 20260504231541 | 47 | 242 | 5.2 | 12.2 | 0.00 | 0.55 | 0.48 | 79 | 1005.2 |
| 20260504230039 | 48 | 245 | 6.1 | 12.2 | 0.00 | 0.55 | 0.48 | 78 | 1005.2 |
| 20260504224538 | 48 | 204 | 5.2 | 12.2 | 0.00 | 0.59 | 0.48 | 77 | 1005.0 |
| 20260504223036 | 48 | 292 | 5.2 | 12.2 | 0.00 | 0.59 | 0.48 | 76 | 1004.9 |
| 20260504221546 | 49 | 249 | 7.0 | 13.0 | 0.00 | 0.59 | 0.48 | 77 | 1004.7 |
| 20260504220056 | 49 | 295 | 5.2 | 12.2 | 0.00 | 0.59 | 0.48 | 79 | 1004.6 |
| 20260504214542 | 48 | 265 | 5.2 | 15.6 | 0.00 | 0.72 | 0.48 | 78 | 1004.5 |
| 20260504213038 | 49 | 266 | 6.1 | 15.6 | 0.00 | 0.72 | 0.48 | 76 | 1004.5 |
| 20260504211535 | 49 | 293 | 7.8 | 18.2 | 0.00 | 0.72 | 0.48 | 73 | 1004.6 |
| 20260504210044 | 50 | 253 | 7.8 | 15.6 | 0.00 | 0.72 | 0.48 | 70 | 1004.5 |
| 20260504204557 | 50 | 261 | 7.8 | 20.0 | 0.00 | 0.80 | 0.48 | 68 | 1004.3 |
| 20260504203038 | 51 | 229 | 8.7 | 15.6 | 0.00 | 0.80 | 0.48 | 63 | 1004.1 |
| 20260504201538 | 52 | 229 | 7.0 | 24.3 | 0.00 | 0.80 | 0.48 | 56 | 1004.1 |
| 20260504200043 | 53 | 282 | 7.8 | 16.5 | 0.00 | 0.80 | 0.48 | 57 | 1004.0 |
| 20260504194544 | 54 | 270 | 8.7 | 17.4 | 0.00 | 0.92 | 0.48 | 55 | 1003.5 |
| 20260504193042 | 53 | 219 | 7.8 | 19.1 | 0.00 | 0.92 | 0.48 | 58 | 1003.5 |
| 20260504191541 | 54 | 237 | 7.0 | 19.1 | 0.00 | 0.92 | 0.48 | 55 | 1003.4 |
| 20260504190039 | 54 | 257 | 11.3 | 21.7 | 0.00 | 0.92 | 0.48 | 52 | 1003.3 |
| 20260504184538 | 53 | 288 | 9.6 | 23.5 | 0.00 | 1.05 | 0.48 | 56 | 1003.4 |
| 20260504183040 | 51 | 279 | 9.6 | 22.6 | 0.00 | 1.05 | 0.48 | 62 | 1003.6 |
| 20260504181545 | 50 | 248 | 10.4 | 20.9 | 0.00 | 1.05 | 0.48 | 61 | 1003.6 |
| 20260504180039 | 51 | 266 | 13.0 | 24.3 | 0.00 | 1.05 | 0.48 | 59 | 1003.7 |
| 20260504174538 | 52 | 245 | 10.4 | 20.9 | 0.00 | 1.13 | 0.48 | 58 | 1003.6 |
| 20260504173039 | 51 | 267 | 13.0 | 23.5 | 0.00 | 1.13 | 0.48 | 60 | 1003.5 |
| 20260504171539 | 50 | 270 | 11.3 | 23.5 | 0.00 | 1.13 | 0.48 | 61 | 1003.6 |
| 20260504081549 | 37 | 248 | 8.7 | 15.6 | 0.03 | 1.03 | 0.31 | 93 | 994.2 |
| 20260504044540 | 33 | 271 | 6.1 | 14.8 | 0.07 | 0.82 | 0.10 | 94 | 988.0 |
| 20260504043046 | 34 | 267 | 7.8 | 14.8 | 0.06 | 0.81 | 0.08 | 94 | 987.6 |
| 20260504041544 | 35 | 295 | 7.8 | 19.1 | 0.04 | 0.78 | 0.06 | 93 | 987.1 |
| 20260504040047 | 35 | 292 | 8.7 | 17.4 | 0.03 | 0.77 | 0.04 | 93 | 986.6 |
| 20260504034540 | 35 | 288 | 7.8 | 18.2 | 0.03 | 0.75 | 0.03 | 93 | 986.2 |
| 20260504033040 | 36 | 271 | 7.8 | 20.9 | 0.03 | 0.74 | 0.02 | 92 | 985.7 |
| 20260504031551 | 36 | 302 | 11.3 | 20.0 | 0.02 | 0.74 | 0.01 | 93 | 985.4 |
| 20260504030043 | 36 | 266 | 10.4 | 19.1 | 0.00 | 0.72 | 0.00 | 92 | 984.9 |
| 20260504024545 | 37 | 311 | 10.4 | 17.4 | 0.01 | 0.72 | 0.72 | 92 | 984.6 |
| 20260504023040 | 38 | 310 | 8.7 | 20.0 | 0.00 | 0.71 | 0.71 | 92 | 983.8 |
| 20260504021543 | 39 | 338 | 11.3 | 23.5 | 0.00 | 0.71 | 0.71 | 92 | 983.6 |
| 20260504020124 | 39 | 333 | 11.3 | 19.1 | 0.00 | 0.71 | 0.71 | 93 | 983.9 |
| 20260504014559 | 39 | 305 | 6.1 | 20.9 | 0.00 | 0.70 | 0.70 | 93 | 984.4 |
| 20260504013055 | 39 | 302 | 7.8 | 19.1 | 0.00 | 0.70 | 0.70 | 93 | 984.2 |